User: anonymous   Login
Location: Unspecified
(0.0000°N, 0.0000°E)
Time: 11:54:24
(UTC+00:00)
Language:

DSP F16 - Orbit

View from above orbital plane
View from above orbital plane
View from above satellite
View from above satellite

Ground track
Ground track

The orbit data is extracted from the following two-line orbital elements,

1 21805U 91080B   17284.63740898 0.00000000  00000-0  00000-0 0    04
2 21805  15.1217  11.8752 0004666 326.9190  33.0639  0.99198385    07
Epoch (UTC): 11 October 2017 15:17:52
Eccentricity: 0.0004666
inclination: 15.1217°
perigee height: 36070 km
apogee height: 36109 km
right ascension of ascending node: 11.8752°
argument of perigee: 326.9190°
revolutions per day: 0.99198385
mean anomaly at epoch: 33.0639°
orbit number at epoch: 0

The dashed part of the orbit path shows where the satellite is in the earth's shadow,  

DLR